DW6936 Weather Reports


Display with metric or nautical units.
time (UTC)temp
F
wind
direction
speed
MPH
gust
MPH
rain 1hr
in
rain 24hr
in
rain mn
in
humidity
%
barometer
mb
20180520171735 61 131 3.0 7.0 0.00 0.00 0.00 78 1015.5
20180520165734 60 158 1.0 6.0 0.00 0.00 0.00 80 1015.5
20180520164734 60 123 3.0 6.0 0.00 0.00 0.00 80 1015.5
20180520163734 60 160 6.0 6.0 0.00 0.00 0.00 79 1015.4
20180520162734 60 140 0.0 7.0 0.00 0.00 0.00 81 1015.4
20180520161734 59 154 4.0 5.0 0.00 0.00 0.00 81 1015.2
20180520160733 59 121 2.0 5.0 0.00 0.00 0.00 82 1015.1
20180520155733 59 153 3.0 5.0 0.00 0.00 0.00 82 1015.0
20180520154733 58 136 1.0 9.0 0.00 0.00 0.00 82 1015.0
20180520152732 57 142 2.0 7.0 0.00 0.00 0.00 83 1014.8
20180520145731 56 127 4.0 7.0 0.00 0.00 0.00 85 1014.5
20180520144731 56 121 4.0 7.0 0.00 0.00 0.00 86 1014.4
20180520141730 56 139 4.0 7.0 0.00 0.00 0.00 87 1014.2
20180520140730 56 129 5.0 8.0 0.00 0.00 0.00 87 1014.2
20180520134729 56 150 2.0 5.0 0.00 0.00 0.00 87 1014.0
20180520132728 56 127 0.0 5.0 0.00 0.00 0.00 87 1013.8
20180520131728 55 135 3.0 5.0 0.00 0.00 0.00 87 1013.7
20180520130730 55 144 1.0 3.0 0.00 0.00 0.00 87 1013.7
20180520124727 55 135 2.0 4.0 0.00 0.00 0.00 87 1013.5
20180520122727 56 137 2.0 6.0 0.00 0.00 0.00 86 1013.3
20180520121727 56 135 2.0 5.0 0.00 0.00 0.00 86 1013.2
20180520114726 56 149 2.0 5.0 0.00 0.00 0.00 85 1013.1
20180520111725 56 125 4.0 5.0 0.00 0.00 0.00 85 1013.0
20180520110725 56 135 4.0 5.0 0.00 0.00 0.00 85 1013.0
20180520104724 56 139 2.0 6.0 0.00 0.00 0.00 85 1012.9
20180520103724 57 137 1.0 3.0 0.00 0.00 0.00 85 1012.9
20180520102723 57 135 0.0 5.0 0.00 0.00 0.00 84 1012.8
20180520100723 57 129 3.0 6.0 0.00 0.00 0.00 84 1012.9
20180520090739 57 136 6.0 8.0 0.00 0.00 0.00 83 1012.6
20180520083738 57 128 7.0 8.0 0.00 0.00 0.00 84 1012.6
20180520081738 57 140 5.0 7.0 0.00 0.00 0.00 85 1012.6
20180520071736 58 127 3.0 7.0 0.00 0.00 0.00 85 1012.3
20180520065736 58 121 5.0 10.0 0.00 0.00 0.00 85 1012.3
20180520063735 58 124 6.0 8.0 0.00 0.00 0.00 85 1012.3
20180520062735 58 136 3.0 6.0 0.00 0.00 0.00 85 1012.2
20180520061734 58 122 4.0 8.0 0.00 0.00 0.00 84 1012.3
20180520054733 59 110 9.0 10.0 0.00 0.00 0.00 84 1012.3
20180520053734 59 115 3.0 11.0 0.00 0.00 0.00 83 1012.3
20180520052733 59 120 4.0 9.0 0.00 0.00 0.00 83 1012.2
20180520051733 60 120 7.0 8.0 0.00 0.00 0.00 83 1012.3
20180520044732 60 169 2.0 3.0 0.00 0.00 0.00 83 1012.2
20180520043731 61 169 0.0 4.0 0.00 0.00 0.00 83 1012.1
20180520034730 62 196 0.0 2.0 0.00 0.00 0.00 79 1011.8
20180520033730 62 196 0.0 0.0 0.00 0.00 0.00 78 1011.9
20180520032729 62 196 0.0 3.0 0.00 0.00 0.00 77 1011.8
20180520031730 63 200 0.0 4.0 0.00 0.00 0.00 77 1011.8
20180520011726 68 275 3.0 7.0 0.00 0.00 0.00 75 1011.8
20180520004725 69 294 4.0 8.0 0.00 0.00 0.00 71 1011.8
20180520002724 68 284 5.0 8.0 0.00 0.00 0.00 74 1012.0
20180520001725 68 243 5.0 8.0 0.00 0.00 0.00 74 1012.0
20180519224721 65 235 1.0 5.0 0.00 0.00 0.00 78 1013.1
20180519223722 65 302 2.0 7.0 0.00 0.00 0.00 79 1013.3
20180519221721 64 275 3.0 5.0 0.00 0.00 0.00 79 1013.6
20180519220721 64 254 2.0 6.0 0.00 0.00 0.00 80 1013.6
20180519213720 63 247 3.0 5.0 0.00 0.00 0.00 80 1014.0
20180519212720 63 254 0.0 4.0 0.00 0.00 0.00 80 1014.1
20180519205723 62 275 4.0 6.0 0.00 0.00 0.00 79 1014.4
20180519204723 62 265 2.0 7.0 0.00 0.00 0.00 79 1014.5
20180519203723 63 265 4.0 6.0 0.00 0.00 0.00 80 1014.7
20180519202723 63 254 3.0 7.0 0.00 0.00 0.00 79 1014.7
20180519201722 63 293 4.0 8.0 0.00 0.00 0.00 78 1014.7
20180519195722 64 289 4.0 7.0 0.00 0.00 0.00 77 1014.9
20180519193721 64 248 2.0 6.0 0.00 0.00 0.00 80 1015.0
20180519192722 63 227 3.0 6.0 0.00 0.00 0.00 80 1015.2
20180519190721 63 270 0.0 5.0 0.00 0.00 0.00 82 1015.1
20180519185721 62 279 2.0 7.0 0.00 0.00 0.00 81 1015.0
20180519181719 62 287 0.0 4.0 0.00 0.00 0.00 85 1015.3
20180519180719 61 245 1.0 4.0 0.00 0.00 0.00 85 1015.4
20180519175749 61 241 2.0 5.0 0.00 0.00 0.00 84 1015.5